User: anonymous   Login
Location: Prague
(50.0830°N, 14.4670°E)
Time: 13:58:20
(UTC+02:00)
Language:

TIGRISAT - Orbit

View from above orbital plane
View from above orbital plane
View from above satellite
View from above satellite

Ground track
Ground track

The orbit data is extracted from the following two-line orbital elements,

1 40043U 14033AK  23087.19065149  .00002814  00000-0  40442-3 0  9999
2 40043  97.6615 266.3574 0057171 317.4512  42.2275 14.76078227471765
Epoch (UTC): 28 March 2023 04:34:32
Eccentricity: 0.0057171
inclination: 97.6615°
perigee height: 601 km
apogee height: 682 km
right ascension of ascending node: 266.3574°
argument of perigee: 317.4512°
revolutions per day: 14.76078227
mean anomaly at epoch: 42.2275°
orbit number at epoch: 47176

The dashed part of the orbit path shows where the satellite is in the earth's shadow,  

DLR